Theta_e
339 338 339 335 326 324 321 320 302 310 306 297 293 297 295 304 302 300 299 302 300 305 306 306 307 310 306 305 305 311 311 306 309 301 308 324 337 339 341 342 343 342 342 344 345 346 346 347 348 348 348 349 349 349 348 348 348 347 348 347 346 346 345 346 346 346 346 345 344 343 344 343 341 340 339 338 339 337 338 338 338 339 341 342 342 344 344 344 344 344 343 341 341 340 338 338 340
333 329 325 327 325 325 315 317 307 300 301 294 295 298 299 301 302 299 298 304 305 305 307 304 307 309 310 307 304 308 313 317 320 321 327 335 338 338 341 342 342 341 343 344 345 345 346 346 347 348 349 348 348 349 348 348 348 348 348 347 346 345 345 346 346 346 346 345 344 341 340 340 340 340 339 339 338 337 338 338 339 340 341 344 346 346 346 344 343 343 343 342 341 340 338 337 339
326 326 323 324 322 320 314 315 301 297 296 290 295 297 300 298 299 304 305 305 305 306 307 307 309 310 308 307 306 306 306 321 322 326 328 336 332 334 340 342 342 342 343 343 344 346 346 345 346 348 348 348 349 349 349 348 348 348 347 347 347 346 346 346 346 346 346 345 343 341 341 340 340 339 338 338 338 337 338 338 339 340 345 345 344 346 345 344 343 343 343 341 340 339 337 337 338
327 330 324 326 318 320 310 308 303 297 295 293 291 299 300 299 302 304 305 306 306 306 308 306 305 311 307 306 306 309 314 316 326 327 326 330 330 336 339 340 342 342 342 343 343 345 345 344 346 348 348 348 348 349 348 348 348 347 347 347 346 346 345 345 345 345 345 344 342 342 341 340 339 339 338 337 337 337 337 339 341 342 344 344 343 343 343 342 342 341 341 341 339 336 336 336 338
326 330 324 321 321 314 311 305 299 298 292 295 292 298 300 303 304 304 304 305 306 306 308 306 307 310 311 310 309 308 312 321 324 329 329 333 337 338 339 341 342 342 342 342 343 345 344 344 347 347 348 348 348 348 348 348 348 347 347 347 347 346 346 345 345 346 345 344 342 340 339 339 339 339 338 337 338 337 338 339 339 341 342 342 341 340 339 343 343 342 341 340 338 338 338 337 337
326 325 330 326 313 315 309 300 299 294 297 299 296 297 300 304 304 304 304 306 306 306 306 306 305 308 306 310 315 311 319 312 326 330 332 331 336 338 339 341 340 341 342 342 344 345 344 342 346 347 348 348 348 348 348 347 347 347 347 347 347 346 345 345 344 345 344 344 342 340 340 340 339 338 337 337 336 337 338 339 340 340 340 340 341 341 343 343 343 341 340 338 338 338 337 337 337
327 323 321 322 317 315 305 299 297 296 297 301 298 298 301 303 304 304 303 303 306 305 307 306 307 305 304 310 316 322 326 325 327 331 334 336 337 339 341 340 340 340 342 342 345 345 343 342 347 348 348 348 348 348 347 347 347 347 347 347 347 346 345 345 345 345 344 343 342 341 339 339 339 338 337 336 336 336 337 339 341 342 343 343 343 342 343 343 342 340 338 336 337 337 337 337 338
328 318 318 308 307 306 300 299 296 298 298 301 302 300 303 304 304 303 302 302 300 300 303 306 305 304 303 310 307 319 327 331 332 335 335 335 337 338 341 340 339 340 341 343 345 343 344 342 347 348 348 347 347 347 347 347 347 346 347 347 346 346 346 345 345 344 344 343 341 340 339 339 339 338 337 336 336 335 339 342 343 342 342 342 342 341 342 341 341 340 338 336 337 336 336 337 337
324 319 322 312 303 306 297 297 296 299 299 301 301 305 309 304 304 303 301 303 302 305 303 304 305 302 302 307 311 316 323 330 333 334 335 335 336 337 338 339 339 339 342 344 344 343 343 341 345 347 347 348 347 347 347 347 347 347 347 347 346 345 346 345 345 344 343 343 340 339 339 339 339 338 337 337 336 337 339 339 340 341 340 340 340 339 339 339 338 339 337 337 336 336 336 336 336
318 314 307 306 307 300 298 297 296 299 299 302 301 302 303 304 303 303 303 301 302 302 306 307 305 303 303 306 309 315 319 329 331 332 334 335 336 337 337 340 341 341 342 345 345 344 343 343 340 343 345 347 347 347 347 347 347 347 347 346 345 345 345 344 344 344 343 342 339 337 337 338 339 338 337 337 336 336 338 337 339 338 338 338 338 337 336 336 336 336 335 336 336 336 335 335 335
309 315 315 306 300 296 298 295 296 299 299 301 301 304 304 303 303 303 303 302 303 303 304 305 303 301 302 310 311 321 325 328 329 329 332 335 336 335 335 340 341 343 342 344 345 344 343 342 340 339 343 344 346 346 347 347 347 347 346 346 345 346 345 344 343 343 343 341 339 337 337 338 338 338 338 337 337 336 336 336 336 336 337 337 336 334 333 333 333 334 333 334 335 335 334 334 334
309 305 311 301 297 299 297 297 298 298 300 300 299 303 303 303 304 302 302 301 300 302 303 303 303 305 302 305 309 317 324 325 328 331 333 335 335 336 338 339 345 342 345 345 344 344 343 342 341 339 336 338 342 344 345 346 347 347 347 346 346 346 346 344 343 343 343 342 339 337 337 337 337 337 337 336 336 335 335 334 334 334 334 334 333 332 332 332 333 333 333 334 334 334 334 333 333
314 312 302 299 298 298 298 296 298 298 298 298 300 303 303 303 301 302 302 302 300 300 302 304 307 304 301 305 311 319 318 321 330 331 333 333 334 337 339 338 342 343 344 343 344 344 343 342 342 341 336 332 334 337 340 342 344 346 346 346 346 346 345 344 343 343 343 342 339 337 337 337 337 337 336 336 335 335 335 334 333 333 333 332 332 332 333 332 332 332 331 332 333 333 333 333 332
313 315 309 299 303 300 299 299 298 296 296 300 301 303 304 302 302 304 301 300 300 300 305 307 305 305 303 307 309 311 316 326 331 331 331 333 334 335 338 339 341 341 344 344 343 344 343 342 343 342 338 340 340 334 331 338 341 345 345 344 345 345 345 344 344 343 342 342 339 338 337 337 337 336 336 335 334 334 334 334 333 333 332 332 332 332 332 332 331 331 331 332 332 331 331 331 331
315 313 307 304 298 298 299 295 299 297 295 300 302 302 302 305 304 301 302 300 301 305 307 308 310 304 298 302 305 309 319 328 330 331 331 331 333 333 336 339 340 340 342 342 342 342 342 342 343 342 341 342 342 341 341 335 334 339 341 342 343 343 344 343 342 341 340 339 338 335 333 331 331 333 334 335 335 334 333 331 332 330 330 331 331 332 332 331 330 329 331 331 330 330 329 329 329
318 310 307 301 296 296 300 297 299 296 296 300 301 303 301 302 304 301 302 303 304 310 306 302 307 302 305 317 318 320 326 328 329 330 329 329 329 331 333 336 337 338 340 341 340 340 341 341 342 342 342 342 342 342 342 340 331 331 337 338 339 340 340 341 339 337 334 333 331 329 326 326 324 325 325 328 330 333 331 328 330 329 329 330 331 331 331 331 330 328 330 330 328 327 327 326 326
315 313 302 297 293 297 299 298 297 295 298 300 302 302 299 299 303 303 303 307 302 303 303 306 304 308 305 313 324 326 326 327 327 328 327 327 327 325 328 330 335 336 338 339 338 339 341 340 341 341 341 342 342 341 342 342 336 329 331 331 332 336 337 337 335 328 325 324 325 323 324 326 326 325 325 324 322 325 323 324 328 329 328 329 330 330 330 330 329 329 328 327 325 324 322 322 322
316 303 299 296 295 298 301 299 299 301 299 298 300 301 300 298 301 303 305 303 303 302 302 305 306 306 308 318 326 325 325 325 326 325 324 324 324 324 324 326 328 331 333 335 337 339 339 337 338 341 340 340 341 342 342 341 338 335 340 336 335 333 330 328 331 332 330 328 322 325 326 325 325 325 324 325 323 324 323 323 326 329 328 328 329 330 330 329 328 328 327 326 324 323 320 314 314
307 300 298 294 299 300 301 301 301 299 299 300 301 301 301 301 301 302 299 299 300 299 301 303 303 305 306 313 323 322 322 323 324 324 323 323 323 324 325 326 326 328 331 333 335 336 337 338 337 340 340 340 340 340 341 339 339 338 339 338 338 332 333 333 337 334 334 330 328 329 325 326 327 325 324 323 322 319 321 322 326 327 327 327 327 328 328 328 327 326 325 324 324 322 316 313 313
306 304 296 298 303 301 302 303 301 302 303 301 300 301 301 302 302 303 299 297 300 298 298 299 301 302 304 308 318 320 321 322 323 322 323 323 324 324 325 325 326 326 329 331 332 335 335 336 338 339 338 340 339 339 340 341 339 339 339 339 336 338 336 337 338 337 336 331 330 331 327 328 327 325 322 322 321 320 320 320 322 323 324 324 324 324 326 325 324 323 323 324 319 315 312 311 310
305 301 299 302 300 300 301 302 302 301 302 303 301 301 301 302 303 301 300 297 298 300 302 301 301 303 305 306 315 319 320 320 321 322 322 324 324 325 325 326 326 327 327 330 330 333 335 336 337 338 338 340 339 339 339 339 340 339 339 339 338 338 336 338 339 338 337 334 333 333 334 332 327 324 321 319 318 319 320 319 319 318 317 316 317 315 315 316 315 315 315 313 312 311 310 309 308
306 299 301 301 300 298 301 301 301 300 301 302 300 299 300 303 303 302 300 296 296 301 305 304 304 305 306 305 314 318 320 319 320 320 322 323 323 324 325 326 327 328 328 328 329 331 333 335 336 337 338 338 339 338 338 337 339 338 338 338 336 338 337 337 336 336 337 337 336 334 334 330 327 325 322 320 318 318 318 317 317 315 314 314 313 311 311 311 311 313 312 310 308 307 306 306 305
298 301 300 300 301 300 302 302 300 299 303 301 300 302 302 301 301 301 300 299 301 304 305 305 306 308 308 307 313 315 318 319 319 319 321 321 322 324 325 325 325 326 327 328 330 330 333 334 335 335 336 338 338 339 337 337 337 338 338 338 337 336 337 335 336 336 336 337 336 335 333 331 329 325 323 322 319 317 317 317 316 315 314 312 310 310 311 313 313 311 310 309 307 305 304 304 303
301 297 299 300 301 300 302 299 300 300 300 300 301 303 301 300 297 302 300 302 303 304 305 304 305 308 309 307 310 311 315 318 319 320 321 322 323 323 324 325 325 326 326 328 329 330 330 332 335 335 334 334 335 337 336 336 335 336 338 334 338 335 335 334 335 335 336 336 336 334 331 332 329 326 325 324 320 318 317 318 317 316 314 312 312 313 315 313 311 310 308 306 305 304 303 301 301
297 297 300 300 301 301 300 299 299 301 302 301 302 301 299 301 300 299 299 302 303 304 304 304 304 305 307 308 309 310 312 315 317 319 321 321 323 324 324 324 325 326 326 327 327 329 329 330 333 333 333 333 334 335 334 333 334 336 336 337 337 334 336 336 336 336 336 336 336 334 332 331 330 327 326 326 323 320 319 319 317 317 316 314 315 315 316 312 311 309 307 305 303 302 300 299 299
299 300 300 300 300 301 300 300 301 301 302 302 300 299 301 301 301 299 301 302 304 304 304 304 304 302 303 307 308 309 310 312 315 317 319 321 322 323 323 323 323 325 326 326 326 326 328 330 330 330 331 332 332 332 331 330 333 335 336 335 336 335 336 337 336 335 335 335 335 334 333 332 330 328 327 327 325 323 323 321 319 318 317 317 317 316 314 312 311 309 308 305 303 301 299 299 297
303 300 301 300 300 300 301 301 301 302 302 301 299 299 300 300 300 294 303 304 303 304 303 304 304 303 303 303 307 308 309 311 314 316 317 318 320 321 322 323 322 323 325 326 326 327 327 328 328 329 330 329 329 331 330 330 331 335 335 337 337 335 335 336 337 336 334 334 334 334 333 332 331 330 329 328 327 325 324 321 319 319 318 318 318 316 314 313 312 311 308 305 302 300 298 297 296
303 301 300 299 301 301 301 302 300 300 300 301 301 298 301 300 301 297 302 303 304 303 303 303 303 302 302 304 303 305 307 310 313 314 315 316 318 320 321 323 323 323 323 324 326 327 326 327 328 329 331 330 328 328 328 328 327 332 333 335 336 335 335 333 336 336 332 333 334 335 333 333 331 330 330 329 329 327 324 321 320 319 318 317 317 315 313 312 312 311 309 305 301 299 298 296 296
301 301 296 298 299 299 299 300 300 301 300 301 302 298 296 297 295 301 302 302 303 303 303 302 302 303 303 303 303 303 304 305 309 312 314 316 318 320 320 324 325 324 324 325 325 326 326 326 327 328 330 329 328 328 327 327 326 328 332 332 332 334 333 335 335 335 335 334 334 335 334 333 331 330 330 330 328 327 323 322 321 319 318 318 316 314 313 313 312 309 306 303 300 298 296 295 296
303 301 298 297 296 295 300 302 300 299 300 301 301 288 291 297 300 302 303 302 302 302 301 300 301 303 303 303 302 303 304 305 305 309 313 314 317 319 319 322 325 325 323 323 325 326 328 328 327 327 327 328 326 326 325 325 326 325 326 332 330 331 332 333 334 335 335 334 333 334 334 332 330 330 330 330 329 327 325 323 321 319 319 317 315 314 313 313 310 305 302 300 299 296 295 294 293
296 298 300 294 291 292 300 300 299 298 300 300 302 290 291 297 300 302 303 303 301 300 299 300 302 303 302 303 303 303 305 306 307 307 310 314 317 318 319 320 323 324 321 322 324 325 325 326 326 326 325 324 323 324 323 322 323 325 324 326 330 330 330 333 333 335 335 335 333 332 334 333 331 330 331 331 329 328 326 323 322 320 318 316 314 313 313 310 307 304 302 299 297 295 294 294 292
298 292 289 293 292 295 299 301 299 296 298 300 299 291 292 297 299 302 302 302 302 299 299 300 302 302 303 303 304 304 305 307 307 308 310 311 314 315 317 317 319 321 321 321 322 324 324 324 323 323 322 323 321 321 321 321 322 323 324 322 328 329 328 330 331 332 333 334 334 332 333 334 332 332 331 330 329 328 327 324 324 320 318 315 314 314 312 308 305 304 302 299 296 295 294 292 292
297 292 292 290 292 294 296 298 301 300 298 300 297 290 294 296 298 300 300 301 300 299 299 300 302 302 302 302 302 303 304 305 307 307 309 310 311 311 314 316 316 318 320 320 321 322 322 321 320 320 319 320 319 319 319 318 320 320 323 324 322 327 327 327 328 330 330 330 330 333 333 333 331 330 329 329 329 328 326 325 323 320 317 315 314 313 311 308 305 304 301 300 297 295 294 292 291
291 294 289 297 291 292 290 296 299 301 298 294 296 292 294 297 298 300 301 301 300 299 299 301 301 301 302 302 302 303 303 303 305 307 308 310 310 311 312 313 315 316 318 319 319 321 321 319 318 318 317 318 317 317 318 317 317 317 316 317 319 325 324 324 324 324 328 329 328 329 331 331 330 329 329 329 327 326 326 325 323 320 317 315 314 312 309 307 305 304 301 299 297 295 293 292 291
290 290 289 291 296 293 292 291 296 298 297 294 294 294 294 297 299 300 300 301 301 299 300 300 301 300 301 301 302 303 303 303 305 306 308 309 310 310 311 313 313 315 317 317 318 319 319 317 316 316 316 316 316 316 316 316 315 314 315 315 317 319 323 321 321 320 321 325 327 328 329 329 328 330 328 327 327 323 322 322 321 319 317 315 313 311 308 306 304 302 300 297 297 296 294 293 292
292 295 294 293 291 291 290 295 297 298 294 293 293 292 294 296 298 300 301 301 300 300 300 300 301 301 301 301 302 303 304 304 306 307 309 309 310 311 310 311 313 314 315 316 315 316 317 316 314 314 314 315 315 314 315 314 315 313 313 312 313 313 315 318 320 320 322 323 322 325 327 327 328 328 328 327 325 323 320 320 319 318 316 315 312 309 307 305 303 302 299 297 296 296 294 294 293
294 295 294 291 292 293 295 295 296 297 294 291 293 294 294 295 297 298 298 298 298 298 298 300 300 301 301 301 301 302 303 305 307 309 309 309 310 311 310 310 310 312 312 313 314 315 315 315 313 313 314 314 314 313 314 313 313 312 311 312 311 312 314 313 315 318 321 322 321 323 324 324 326 326 326 325 321 318 319 318 318 316 316 314 311 309 307 305 304 301 299 298 295 293 292 293 292
294 294 293 290 295 290 296 295 297 296 293 290 292 292 293 295 297 298 298 298 298 298 299 299 299 300 302 302 302 302 303 305 309 309 309 308 308 309 309 309 308 310 311 312 313 314 314 314 313 313 313 313 314 314 314 313 312 313 312 311 309 310 312 312 313 316 320 319 319 319 320 321 321 323 322 322 319 318 317 316 316 315 314 313 312 310 307 304 301 299 298 296 298 294 291 292 291
295 292 291 291 291 294 295 295 296 297 294 289 291 291 293 295 297 298 298 299 300 300 300 300 300 299 301 302 303 303 302 304 308 308 308 307 308 308 307 307 308 309 309 310 311 312 313 313 313 313 313 313 313 313 313 312 310 311 311 309 312 309 311 313 314 316 317 316 316 315 317 318 319 319 319 317 317 317 316 315 315 315 314 313 310 308 305 302 299 298 296 295 293 293 292 293 291
293 291 290 288 294 291 288 293 295 295 293 290 290 291 293 296 297 297 299 299 300 300 301 301 301 300 301 302 303 302 302 303 306 308 307 306 307 307 306 306 307 307 308 308 309 311 313 313 312 313 313 312 313 312 311 311 310 310 310 310 313 312 308 307 308 309 313 312 312 312 311 314 316 317 317 316 316 315 315 314 314 314 314 312 311 307 304 301 298 297 296 296 294 291 291 291 292
294 295 293 291 295 294 292 291 294 295 295 295 292 291 292 295 294 295 298 300 299 299 299 300 301 303 303 304 304 304 302 302 304 306 307 305 306 305 306 305 306 307 307 308 309 310 313 312 312 312 312 312 312 310 311 311 310 310 307 305 305 305 305 306 306 306 308 310 309 309 309 309 312 313 314 315 315 314 314 314 313 313 313 312 311 307 303 301 299 298 298 296 294 293 290 290 291
291 295 295 294 295 293 296 296 294 289 288 294 295 281 283 290 291 292 296 297 297 299 299 300 301 301 302 303 303 303 305 305 304 304 306 306 306 305 304 305 305 305 306 308 309 310 310 311 311 311 311 311 311 310 310 311 310 308 305 304 303 303 303 305 306 307 305 305 307 307 306 306 308 310 311 312 313 313 313 313 313 312 312 312 310 308 304 301 299 298 299 298 297 296 293 291 290
289 290 297 299 295 295 294 293 292 283 282 293 295 284 281 289 290 293 293 293 294 295 297 299 299 301 301 302 303 303 304 304 305 305 306 305 304 304 304 304 304 305 305 306 308 308 309 310 310 311 311 310 310 309 310 309 308 307 307 306 306 305 305 305 309 311 308 306 305 305 305 304 305 307 308 310 310 311 312 312 312 312 312 312 310 308 304 301 300 299 298 298 298 297 294 291 290
287 296 297 297 296 293 294 294 292 287 294 295 293 290 281 282 289 292 293 294 294 294 296 298 298 300 301 301 303 303 304 304 306 305 305 304 305 305 304 304 304 305 305 306 307 308 309 309 309 309 310 309 310 310 310 309 307 307 305 306 306 306 306 305 307 308 308 306 305 304 302 302 302 303 304 306 307 308 309 309 310 311 311 311 308 308 305 303 301 300 299 299 299 297 295 293 292
293 295 299 297 297 296 296 292 289 289 287 283 288 293 283 282 289 294 293 292 291 293 294 296 298 298 299 301 303 303 304 304 306 305 304 304 303 304 304 304 304 305 306 306 307 307 308 308 309 309 309 308 309 309 309 308 307 307 306 306 305 306 307 306 305 306 307 306 306 303 301 300 300 300 301 302 303 305 305 306 307 308 309 309 306 308 306 304 302 300 299 299 300 298 296 296 295
294 298 299 298 298 297 295 290 288 286 283 280 287 291 282 283 288 290 291 291 292 292 294 295 296 299 301 302 301 302 304 303 303 304 304 304 304 303 303 305 304 304 306 307 307 307 308 308 308 308 308 308 308 308 308 307 306 306 305 305 306 307 307 307 306 304 305 305 305 302 301 298 298 297 297 298 299 302 303 304 305 306 307 307 304 306 305 303 302 301 300 300 300 299 298 299 298
298 298 296 295 294 290 290 288 285 283 279 281 290 292 287 280 286 289 289 293 293 294 294 296 299 301 302 303 303 303 303 303 303 302 302 302 301 302 301 302 303 304 305 306 306 307 307 307 307 307 307 307 307 307 307 306 306 306 306 305 306 306 307 308 305 304 302 302 303 302 301 299 297 296 295 295 297 298 301 302 304 305 306 304 303 304 303 302 301 300 300 300 301 301 300 299 299
298 294 290 290 287 287 285 284 284 279 277 285 287 292 290 278 281 292 294 293 294 295 294 296 298 300 302 303 303 304 302 303 303 301 300 299 299 300 300 300 301 303 304 304 305 306 306 306 306 306 306 306 306 306 305 306 306 305 305 306 306 306 307 308 306 304 302 301 302 300 299 297 295 295 295 294 295 295 297 299 301 303 304 304 304 305 304 303 302 302 302 301 301 301 300 299 299
297 291 288 283 281 281 279 283 278 278 277 284 284 288 284 286 288 291 293 294 295 296 297 298 297 299 302 303 303 303 302 302 302 302 301 299 298 298 298 299 300 302 303 303 305 305 305 305 305 305 305 305 305 305 304 304 305 305 305 305 306 307 307 308 308 306 304 303 303 301 298 297 295 294 294 294 294 294 296 297 299 301 303 304 304 305 304 303 302 302 302 301 302 301 300 300 299
292 288 283 280 276 276 273 277 280 281 282 282 283 288 281 287 290 294 295 297 295 296 299 300 301 300 300 301 305 304 303 302 302 302 302 300 301 299 299 299 300 301 302 303 304 304 304 305 305 305 305 305 304 304 304 304 304 304 304 305 306 306 308 309 309 308 306 304 304 302 299 299 296 295 294 294 295 294 295 297 298 299 302 303 303 304 304 304 303 303 302 301 301 302 301 300 300
291 292 290 283 280 276 273 276 275 276 279 282 283 280 279 279 284 292 296 297 297 297 297 299 300 301 300 301 300 301 303 301 302 302 303 303 303 302 300 300 300 301 302 303 303 304 304 304 305 304 304 305 303 303 303 303 303 303 304 304 305 306 307 308 308 307 306 303 302 302 300 300 299 297 297 296 295 294 295 296 297 298 299 301 302 303 303 303 303 303 303 302 302 301 301 300 297
291 293 294 285 283 286 278 281 280 280 280 279 280 280 283 286 292 295 294 294 294 295 296 297 296 298 301 300 300 300 301 301 301 301 302 302 303 303 302 301 300 300 301 302 303 304 304 304 304 304 304 304 303 301 302 302 302 302 302 303 304 305 305 307 305 304 304 303 301 301 300 300 301 300 299 297 296 294 294 294 295 296 298 299 300 301 301 301 302 301 298 297 297 299 297 295 294
288 290 284 288 292 289 284 280 282 280 278 277 281 283 287 290 293 295 295 295 295 295 294 296 296 296 298 299 299 298 300 299 300 301 302 302 301 303 303 301 300 301 301 302 303 304 304 304 303 303 303 302 303 301 301 301 301 301 301 302 302 303 303 303 304 302 301 302 302 302 301 300 300 301 299 297 295 294 293 293 294 295 296 297 298 299 299 299 299 297 296 294 293 292 293 293 292
291 283 288 293 294 292 285 278 281 278 275 278 280 279 282 280 281 290 289 291 291 291 292 294 295 294 297 298 298 299 299 302 302 302 302 302 301 301 300 301 301 301 301 301 302 303 304 303 303 303 303 303 303 302 301 301 301 300 300 301 301 302 302 302 303 302 301 300 301 300 300 300 299 298 297 296 294 293 293 292 293 293 293 294 295 294 293 293 293 294 294 294 293 291 291 290 290
292 289 297 288 281 281 283 280 274 272 273 275 278 280 282 284 285 289 289 288 290 292 293 294 295 296 296 296 299 301 303 302 303 302 302 302 301 300 300 300 300 301 301 302 302 303 303 302 303 303 303 304 304 303 302 301 301 301 300 300 301 301 302 301 301 301 301 300 299 299 298 298 297 295 294 293 292 291 291 291 291 290 291 292 292 292 292 292 291 290 290 290 290 291 290 288 288
296 295 292 295 287 282 281 281 280 280 274 273 277 278 279 288 289 289 290 291 293 294 293 293 292 295 296 297 303 303 302 302 302 302 302 301 300 299 299 299 299 300 301 301 302 302 302 303 302 303 303 303 303 303 301 301 300 300 300 299 300 301 301 301 300 300 299 299 298 297 297 296 296 293 292 291 291 290 290 290 290 290 290 290 291 290 291 291 291 290 290 289 289 289 288 287 285
284 285 284 287 285 288 284 285 282 278 275 275 274 276 281 288 291 291 292 293 294 293 296 297 298 298 298 302 304 303 303 302 301 301 301 301 299 298 298 298 298 296 297 300 302 302 302 302 302 302 302 302 302 303 302 301 300 300 299 299 299 299 298 298 298 299 298 298 296 295 294 295 293 292 291 290 290 290 290 289 289 289 289 289 290 290 290 290 290 289 288 288 287 287 286 284 283
290 289 287 289 285 282 278 279 287 283 281 276 276 276 283 292 294 294 293 294 294 297 295 297 296 295 297 299 303 302 302 303 302 302 303 301 298 298 297 296 295 295 297 299 301 300 301 301 302 302 302 302 301 302 302 300 299 300 299 299 298 297 297 296 295 295 295 295 295 294 293 292 292 290 290 290 289 289 289 288 288 288 289 289 289 289 289 290 289 288 287 287 286 285 284 282 282
Wind_Speed
10 8 7 6 5 4 2 2 2 2 1 2 4 1 1 2 3 3 5 4 3 2 3 3 5 5 5 2 3 11 8 6 3 0 2 3 5 6 7 9 9 9 9 8 8 7 7 7 8 9 9 9 9 9 10 11 11 10 12 12 12 12 13 14 14 14 15 16 15 15 15 15 15 14 14 14 14 14 14 13 13 13 15 15 14 16 18 19 21 21 20 21 20 19 18 18 17
8 6 3 3 3 0 2 5 1 3 3 5 4 5 2 3 2 4 4 8 3 2 1 4 4 3 1 3 2 3 10 10 6 6 7 7 7 3 6 9 10 11 8 7 7 7 6 5 7 8 9 10 11 10 10 11 11 11 12 11 12 12 13 13 14 15 15 16 15 15 15 15 14 14 14 13 14 14 13 14 14 14 14 17 19 19 21 20 19 20 20 20 20 19 18 17 17
6 6 5 3 3 2 4 2 2 4 4 5 3 3 3 3 3 9 10 8 7 4 4 4 2 1 2 3 1 7 3 9 10 8 7 10 10 6 3 7 8 9 10 8 8 8 6 5 6 8 9 10 11 11 11 11 11 11 11 12 11 12 12 13 14 14 15 15 15 14 15 15 14 14 14 14 14 14 14 14 14 13 18 17 17 20 21 20 19 19 20 20 19 19 18 17 16
6 6 3 1 2 2 2 1 3 4 3 5 4 2 3 4 8 10 8 5 4 4 1 2 1 1 3 4 4 2 5 4 7 9 7 9 5 8 5 4 8 6 6 7 8 8 7 7 9 9 8 10 11 12 12 11 11 11 11 11 11 11 12 13 13 14 15 15 14 14 15 15 14 14 14 14 13 13 14 14 14 16 17 17 17 19 20 19 19 19 19 19 19 19 18 16 15
5 4 2 2 0 2 1 3 2 3 4 2 4 3 3 7 8 8 5 4 3 3 2 2 1 1 2 0 3 1 3 7 8 6 5 4 12 10 8 5 7 7 6 7 8 9 8 10 9 8 9 9 11 11 11 11 11 11 10 11 11 11 12 13 13 15 15 15 14 15 15 15 14 14 14 14 13 12 14 14 14 15 15 16 17 17 18 18 18 20 19 19 19 19 17 16 15
6 3 3 0 1 1 1 2 1 6 3 3 4 3 5 8 8 7 6 6 3 3 3 1 2 0 1 3 3 2 1 1 3 8 7 6 10 9 7 5 7 7 6 7 9 8 7 10 8 8 9 9 11 11 10 11 11 10 10 10 11 11 11 12 13 14 15 14 14 14 14 14 14 13 13 13 13 13 15 15 14 14 14 15 15 17 17 18 20 20 18 17 18 18 17 16 14
2 1 1 0 3 1 2 4 3 5 4 3 3 4 6 7 8 8 6 5 2 3 0 2 1 1 2 1 5 4 5 2 4 4 7 3 9 6 8 6 6 7 6 6 8 9 9 10 10 11 9 8 10 10 10 10 10 10 9 10 11 11 11 12 13 13 13 13 14 14 14 14 13 13 13 12 12 13 15 15 16 16 17 16 17 16 19 20 20 19 18 17 17 17 15 14 15
0 1 1 2 2 2 3 1 6 3 2 4 5 6 6 8 6 5 6 4 3 2 2 2 0 2 2 3 2 1 8 8 10 11 9 6 4 7 4 5 6 7 6 7 8 8 9 10 10 9 9 11 10 9 10 10 10 9 9 10 10 11 11 12 13 13 13 13 13 14 14 14 14 13 12 12 12 12 16 17 16 16 16 17 15 17 19 20 19 18 17 17 17 16 15 15 15
1 1 0 1 2 1 4 4 3 4 3 3 3 6 8 6 5 5 4 5 5 4 4 3 2 0 1 5 5 3 4 6 8 9 10 7 5 5 5 5 7 6 6 9 8 8 7 9 9 9 8 10 9 10 10 10 9 9 10 10 10 10 11 11 12 12 12 13 13 13 14 13 13 13 13 12 11 14 15 15 15 15 15 15 17 18 18 18 18 17 17 17 16 15 15 15 15
1 2 1 1 1 3 3 3 4 2 4 4 5 3 4 4 4 5 5 5 4 4 5 4 3 1 1 5 4 3 4 7 7 7 9 8 7 6 5 5 5 8 6 9 8 7 6 8 9 9 8 8 9 7 10 9 9 9 9 9 10 11 11 11 12 12 12 12 13 13 14 13 13 13 13 12 11 12 14 14 15 14 14 15 16 17 17 16 16 16 16 16 15 14 15 15 15
2 2 1 2 3 4 1 4 4 3 4 3 4 4 3 2 4 3 4 6 4 3 3 5 2 2 3 5 3 2 8 8 7 8 6 9 6 5 5 4 4 6 7 8 8 8 7 6 9 9 8 7 7 7 7 9 9 9 9 9 10 11 12 11 12 12 12 12 12 13 13 13 13 13 13 13 12 12 13 13 13 14 14 14 14 16 15 15 15 15 16 16 15 14 14 14 14
1 2 1 2 4 1 3 2 6 4 5 4 3 3 1 3 2 2 3 5 3 4 4 5 1 1 2 4 2 3 7 7 6 7 5 5 7 3 3 1 3 6 6 6 8 8 7 6 5 7 9 8 7 6 5 6 7 8 6 8 10 10 12 12 12 12 12 12 12 12 13 13 13 13 13 13 12 12 13 13 13 13 13 14 14 15 14 15 15 16 16 16 15 15 14 15 15
1 1 2 2 3 3 2 2 3 3 4 4 6 3 3 4 3 3 3 1 5 3 4 5 2 1 1 2 2 5 7 6 8 7 6 4 5 5 4 3 3 4 7 6 6 8 8 7 6 5 7 9 7 6 5 3 5 6 7 7 8 9 11 12 12 12 13 13 12 12 12 12 12 13 13 13 12 12 14 14 14 14 14 14 14 14 15 15 16 16 16 16 15 15 15 15 14
0 2 1 3 1 1 1 1 1 1 1 5 4 5 4 3 3 2 5 2 4 2 1 3 1 3 1 6 3 5 5 7 10 7 5 4 4 3 2 4 2 4 5 5 5 6 7 7 7 6 6 5 5 5 5 5 4 7 8 7 7 8 10 11 11 11 12 12 12 10 10 10 11 12 12 13 13 13 12 11 14 14 14 14 14 14 15 16 16 16 16 15 16 16 16 15 15
1 3 1 1 2 1 1 1 3 0 2 3 4 6 4 1 1 3 1 2 4 1 2 4 1 1 1 2 4 5 7 9 8 6 4 4 3 4 1 4 3 2 5 3 4 6 5 6 7 6 6 5 6 5 4 5 6 6 8 7 6 8 9 10 11 11 12 12 12 11 11 11 10 10 10 10 10 8 10 12 13 13 14 14 15 15 16 17 16 16 16 15 16 16 16 15 14
1 2 0 1 3 1 0 2 2 2 2 4 5 6 4 3 2 2 2 2 2 1 0 1 2 1 2 7 3 10 10 8 7 6 5 5 3 2 1 3 3 3 3 4 2 1 5 5 5 7 6 5 6 5 6 5 6 7 6 7 5 7 7 10 11 12 12 12 12 12 12 10 10 9 11 8 10 11 11 9 11 12 14 14 15 16 16 16 16 16 15 16 16 16 15 15 14
1 0 0 1 3 2 2 0 2 0 3 4 5 5 4 3 1 2 1 0 3 2 1 2 2 1 3 4 8 9 8 8 7 7 6 5 4 3 1 2 4 3 3 4 2 1 4 3 4 5 6 6 6 5 6 6 6 8 4 7 8 6 8 10 12 13 12 12 11 12 11 8 6 5 6 5 8 7 10 11 11 12 14 14 15 15 16 15 16 15 16 17 17 16 14 14 14
0 0 1 2 5 2 3 1 2 6 5 4 4 6 4 4 3 1 0 1 0 5 1 4 4 6 7 6 8 8 6 7 7 8 6 6 5 5 4 3 4 5 4 4 3 2 5 3 3 4 4 4 5 5 4 4 5 6 4 5 6 4 7 10 10 8 9 8 12 9 7 7 6 5 5 6 6 6 7 10 11 12 14 14 14 15 15 16 15 16 16 16 16 13 11 7 8
2 1 2 4 1 1 4 5 9 4 5 6 4 4 4 5 7 3 3 3 4 3 3 5 4 7 6 6 8 8 7 6 8 7 9 8 7 8 6 5 4 5 6 5 4 4 3 3 3 4 6 4 4 4 4 5 6 4 4 6 5 6 6 6 7 8 7 8 7 6 7 6 7 6 5 5 6 8 8 10 11 11 12 12 14 15 16 16 16 15 14 12 10 8 6 4 6
2 1 3 2 2 4 7 8 5 4 3 6 4 3 2 5 4 3 2 4 7 6 5 5 6 7 8 8 8 8 8 7 7 7 8 8 7 8 8 8 7 5 6 6 5 5 5 4 5 4 5 6 5 4 5 6 6 5 5 6 6 5 6 6 7 7 7 8 7 5 7 6 8 6 10 13 9 6 7 10 11 11 12 12 12 9 12 13 14 13 10 6 5 5 6 7 7
0 1 1 1 3 2 5 6 5 4 5 2 4 3 1 2 2 4 3 3 4 6 6 6 9 10 12 11 9 9 9 9 8 7 8 8 7 7 8 8 7 6 5 7 6 7 8 6 5 5 4 6 5 5 6 5 6 7 5 6 6 6 6 6 7 7 7 8 7 4 4 7 7 7 7 6 6 6 6 6 5 5 5 6 7 5 6 6 6 5 2 5 6 6 6 6 6
0 1 3 2 5 3 3 5 5 3 4 3 4 4 2 3 2 1 3 3 2 0 2 1 2 6 14 12 10 8 9 9 9 8 9 10 10 9 8 6 6 7 6 7 7 7 9 8 6 5 5 5 6 6 6 7 6 5 6 6 7 6 6 6 5 6 7 8 7 5 6 8 8 7 7 7 6 5 6 5 5 5 4 5 4 6 5 4 4 4 4 6 7 6 7 7 6
1 1 3 4 1 3 1 2 2 4 0 2 3 1 2 1 1 5 4 5 2 3 5 6 4 10 12 11 10 9 9 10 10 11 10 10 9 9 9 8 7 8 8 7 8 7 9 9 8 7 7 7 8 6 6 6 6 5 5 6 7 7 6 6 6 6 6 7 6 6 7 7 8 8 7 8 8 6 5 5 5 5 4 5 6 6 5 4 3 6 6 6 6 7 7 7 7
1 1 2 3 3 5 3 2 1 1 5 3 1 1 1 2 3 0 5 5 3 4 6 8 7 7 10 11 9 11 11 11 12 11 10 10 10 10 8 9 7 5 6 8 9 8 10 11 11 10 8 7 7 7 6 7 5 5 6 6 6 7 7 8 6 6 6 6 5 6 6 7 8 8 7 8 9 8 7 6 6 6 5 6 6 6 5 4 6 6 6 6 7 6 6 6 7
3 2 3 1 2 2 3 2 1 0 0 2 3 1 3 2 1 2 4 4 4 4 5 7 6 5 7 9 9 8 8 7 8 8 6 5 6 7 6 5 7 8 7 8 8 9 9 10 11 11 8 8 7 7 7 7 6 6 4 6 6 5 7 7 7 7 6 6 6 6 6 7 7 8 7 7 8 8 8 7 8 6 6 6 6 6 5 6 6 6 6 6 6 6 6 6 7
3 2 4 3 3 3 2 3 1 1 2 0 1 3 2 3 2 4 8 6 5 5 5 6 6 5 5 8 9 8 8 9 7 8 10 7 6 7 8 7 5 8 8 7 5 5 7 10 11 11 10 10 8 7 6 7 7 6 6 6 6 6 5 6 5 6 7 6 7 6 7 7 7 8 7 7 7 8 8 8 9 7 7 7 6 6 6 6 6 5 6 7 7 7 6 6 7
2 4 3 4 4 3 1 1 3 0 1 1 1 3 1 1 3 5 1 2 6 5 6 6 7 6 6 5 7 8 9 10 11 8 6 6 7 8 8 8 7 6 8 8 7 6 7 8 8 8 8 7 6 8 7 6 7 8 7 6 6 6 6 7 6 7 6 7 6 6 5 7 7 6 7 8 6 7 6 7 8 7 7 7 7 6 7 7 6 5 5 6 7 7 7 6 6
2 4 5 4 3 2 2 1 3 1 1 1 1 4 0 2 1 9 3 2 3 5 5 5 6 5 6 7 7 7 8 7 8 8 11 10 10 9 9 10 11 8 8 10 8 6 7 9 9 9 10 9 7 7 8 8 7 8 7 6 6 6 6 6 7 6 6 6 6 7 6 6 7 6 7 8 8 7 6 7 7 7 6 7 7 6 8 6 6 6 5 5 6 7 7 6 6
3 4 3 4 4 2 4 4 3 1 1 1 1 3 5 4 6 15 5 4 5 5 5 5 5 5 5 5 6 6 7 6 7 9 10 11 9 9 10 9 10 10 6 8 8 8 8 9 10 10 10 8 8 8 7 6 5 7 8 7 7 7 7 5 6 7 6 6 5 6 7 6 6 7 8 8 8 8 6 7 7 6 6 6 6 7 8 6 6 6 6 6 6 6 8 7 6
1 1 2 4 3 3 7 3 3 1 1 2 1 2 6 11 17 8 6 7 4 4 3 4 4 5 6 6 5 6 6 6 7 9 9 8 8 9 10 9 9 9 7 6 7 9 8 6 7 7 9 9 8 6 5 5 5 4 6 8 7 7 6 5 5 6 7 6 6 6 6 6 6 6 8 8 7 8 7 7 7 6 6 6 7 7 7 6 6 8 7 6 5 6 7 7 7
2 3 0 1 3 1 7 3 5 3 1 2 0 2 8 3 1 3 4 6 7 5 5 5 5 6 5 6 6 6 6 8 9 8 8 9 8 8 10 8 8 8 6 6 10 9 8 7 7 7 8 6 7 7 6 5 4 5 4 6 7 7 6 6 5 6 7 6 6 6 8 6 7 6 8 9 8 8 8 7 7 7 7 7 7 6 7 6 7 8 7 7 5 5 7 7 7
1 3 3 3 2 1 1 3 6 4 1 3 2 3 8 12 3 1 3 2 2 4 4 4 5 5 5 6 6 6 7 8 9 8 9 9 8 8 10 10 9 10 11 10 9 8 9 7 7 6 7 7 7 8 6 6 6 6 6 5 6 7 7 6 6 5 6 7 7 7 8 7 6 6 7 9 8 8 8 8 7 7 8 7 8 7 7 8 7 7 7 8 8 6 8 7 7
1 3 1 3 3 2 1 2 2 3 3 1 5 4 4 0 3 4 4 5 4 3 4 5 5 4 4 4 6 6 6 7 8 9 9 10 9 7 9 10 11 12 10 10 10 9 9 9 9 8 8 8 7 7 6 5 5 5 6 6 4 7 7 7 6 6 5 6 5 8 9 8 6 5 5 7 9 9 8 8 7 9 8 8 8 7 7 8 9 7 7 5 6 9 8 8 7
3 3 3 1 4 4 3 2 1 0 2 2 5 4 7 6 2 2 2 4 5 5 5 6 5 5 5 5 5 6 7 7 9 10 11 11 9 10 9 10 10 10 9 10 10 11 11 9 9 9 7 8 7 7 7 6 5 4 4 4 3 7 6 6 7 6 6 5 5 6 7 8 8 6 6 7 6 7 8 8 8 9 9 8 8 7 7 7 7 9 9 6 6 8 8 9 8
5 4 3 4 0 3 0 2 3 1 1 3 3 8 10 11 11 8 5 7 7 7 7 7 7 6 5 5 5 7 8 9 10 9 11 11 11 11 9 9 8 9 9 10 9 9 8 8 8 9 8 8 7 7 6 5 4 4 3 4 4 6 6 6 6 6 5 5 5 6 7 7 8 8 7 8 8 6 6 7 8 9 9 9 8 8 7 8 7 7 9 9 5 5 8 8 9
5 1 2 3 3 4 3 2 0 1 2 4 6 8 7 10 11 8 8 8 9 8 7 6 7 7 7 7 7 7 8 10 9 8 11 12 11 12 10 9 8 8 8 8 8 8 9 8 7 7 8 8 6 6 7 6 6 7 6 4 2 3 5 7 6 6 5 5 4 6 6 7 8 8 8 8 8 8 7 7 8 9 9 9 10 10 9 9 11 10 8 11 10 7 4 7 9
2 0 1 3 4 2 3 3 2 1 1 5 8 9 9 10 10 9 6 5 5 5 6 8 8 8 7 7 9 10 10 12 6 9 11 13 12 11 10 8 8 7 7 8 9 9 11 11 10 11 9 8 8 8 7 8 8 6 5 7 6 4 5 4 5 5 6 5 5 5 7 6 7 8 8 8 7 8 8 8 8 9 9 10 10 11 12 12 10 9 10 9 13 11 7 7 7
2 2 4 4 2 2 3 2 1 2 0 2 4 6 9 8 7 7 6 6 9 9 9 10 9 7 8 9 11 12 11 4 4 5 6 8 8 8 8 7 7 10 9 9 11 12 11 10 11 10 9 9 9 9 8 8 7 8 6 6 4 5 5 6 5 5 5 5 5 5 6 6 7 7 7 8 9 10 9 7 9 10 10 10 10 10 11 10 11 10 10 8 4 11 10 10 9
3 0 1 1 3 2 3 3 1 0 1 6 5 6 11 8 8 8 8 9 11 8 10 11 10 9 8 8 11 10 6 8 6 6 6 7 7 7 7 6 6 8 8 9 8 7 8 10 9 9 9 10 9 8 8 9 5 5 5 3 6 3 3 3 3 3 3 5 5 4 5 6 6 6 6 7 8 8 9 10 9 9 11 11 9 9 10 11 12 14 14 13 10 3 5 8 11
0 3 1 3 1 1 2 1 1 2 3 2 4 8 14 11 9 14 15 14 15 11 10 9 7 8 8 11 12 7 7 8 8 8 8 7 8 8 6 7 8 6 6 6 7 9 9 9 8 9 9 9 8 7 8 6 6 4 4 4 6 5 4 4 3 2 4 5 6 5 3 4 6 6 7 7 6 8 9 10 9 8 9 10 12 12 11 11 11 12 12 11 13 11 8 9 9
3 3 2 3 1 1 2 0 2 3 4 1 5 6 9 8 7 5 8 12 10 8 6 6 6 7 8 8 7 6 7 6 7 7 7 8 8 9 10 8 7 8 8 9 9 9 8 9 8 8 7 8 7 7 8 8 7 6 4 5 5 6 4 5 4 4 6 6 5 6 6 3 4 5 6 6 8 9 9 9 10 10 9 10 9 11 12 13 13 11 10 11 14 15 12 8 10
3 6 7 4 3 3 2 2 5 2 1 0 1 6 5 3 4 5 4 2 2 4 5 7 8 7 6 9 11 6 5 5 5 6 7 10 10 6 6 7 8 8 9 9 8 8 6 7 7 7 6 6 7 7 8 8 8 9 8 8 8 6 6 8 11 11 8 8 8 4 4 5 4 4 6 6 7 8 9 10 10 10 10 9 9 11 11 11 12 13 13 13 11 11 15 11 10
1 1 4 3 1 4 2 1 1 2 0 1 0 1 8 7 13 11 8 7 9 6 6 9 7 7 8 10 8 7 7 6 5 5 3 7 6 8 7 9 9 9 7 5 5 6 6 6 7 8 7 7 7 7 8 8 8 8 9 9 8 9 9 7 5 5 7 5 5 7 6 4 4 5 5 6 6 7 8 9 10 10 10 10 9 9 11 13 13 14 12 12 13 12 10 13 13
2 1 3 1 3 3 1 1 1 3 1 2 4 3 4 8 15 6 7 10 9 8 10 11 9 8 9 7 6 6 6 6 6 6 6 5 9 10 11 9 8 8 5 6 6 6 7 6 7 7 6 7 7 8 9 8 9 8 8 7 7 7 7 6 7 5 5 6 6 6 6 5 4 4 4 4 5 6 6 7 9 9 9 9 10 10 12 11 11 11 13 13 10 9 12 12 13
1 1 2 3 3 4 1 1 1 1 2 7 2 1 2 5 8 7 6 9 6 7 9 10 10 7 6 5 4 4 4 4 5 5 5 5 5 6 6 7 6 6 7 7 6 6 6 5 6 6 7 8 8 10 10 9 9 9 9 8 8 6 6 5 6 6 6 7 8 6 6 6 5 4 4 3 4 5 6 7 7 7 8 9 9 9 9 11 14 14 13 11 10 9 10 8 10
2 2 3 4 4 2 2 0 1 2 1 7 4 5 3 10 6 7 5 6 8 6 8 8 4 4 5 6 4 4 3 4 4 5 4 3 3 4 5 6 6 6 6 6 5 5 6 5 7 8 7 7 7 8 9 8 8 7 8 8 9 7 6 5 7 7 7 7 8 8 6 6 5 4 4 3 3 4 5 6 7 8 8 8 9 9 8 9 10 12 14 14 12 11 9 8 10
4 3 4 1 1 1 0 1 1 2 4 7 8 9 5 8 3 9 6 5 4 8 4 1 5 5 4 4 3 3 4 3 3 4 5 5 3 4 4 6 6 5 5 6 6 6 6 6 7 8 7 6 7 8 8 9 8 7 8 8 9 8 8 8 7 7 6 6 7 7 7 6 5 5 5 5 4 4 5 5 6 7 7 7 8 8 8 8 8 10 10 9 11 13 10 10 8
2 1 2 2 1 2 1 1 2 1 7 1 2 7 5 6 4 4 0 1 3 1 0 5 4 5 4 2 3 4 4 5 4 5 5 5 3 2 2 5 6 6 6 6 6 6 6 6 6 6 5 6 6 7 7 8 8 8 7 8 9 8 8 7 7 7 7 7 6 7 5 5 5 5 5 5 5 4 5 6 6 6 7 7 8 7 8 9 8 6 5 7 7 9 9 9 8
1 2 2 4 1 2 2 1 3 5 7 0 2 2 2 15 8 4 5 6 2 1 1 1 3 5 4 2 2 2 3 5 5 5 5 5 6 6 5 5 5 6 7 6 6 6 5 5 6 7 7 6 7 8 8 8 8 9 9 9 9 9 8 7 8 7 7 8 7 7 8 7 6 6 6 7 7 7 6 7 7 8 8 8 9 8 8 9 9 10 9 9 8 8 8 8 7
3 6 6 5 3 3 4 4 2 2 1 3 2 2 6 7 7 7 12 11 5 2 2 0 1 2 1 2 2 5 5 5 5 5 6 6 6 6 6 6 6 6 6 7 6 6 6 6 6 8 8 8 7 9 9 9 10 9 8 9 9 8 9 8 8 8 7 7 7 8 8 8 8 9 8 9 9 9 8 8 7 8 8 8 9 8 7 8 9 10 10 10 10 9 8 9 8
9 4 8 7 6 3 4 3 5 5 3 0 4 1 8 3 4 1 1 1 1 2 3 0 1 0 2 1 3 5 5 6 5 5 5 6 7 7 7 7 7 7 7 7 6 7 7 7 8 9 8 9 9 10 9 9 8 8 8 8 8 7 8 8 7 7 7 7 7 8 8 7 8 8 9 8 8 9 9 8 8 8 8 8 8 8 8 8 8 8 8 10 9 6 8 8 8
4 4 1 3 8 1 3 1 0 0 1 1 1 6 2 4 4 9 5 3 5 3 4 3 4 3 1 3 7 8 7 5 5 5 6 6 7 7 7 7 7 7 8 7 8 8 8 8 8 8 9 7 7 7 7 8 7 6 6 8 8 7 6 6 5 5 6 7 8 8 7 7 7 7 7 7 8 9 9 8 8 8 8 8 7 8 8 8 8 8 7 6 7 6 7 7 8
5 3 6 6 1 1 1 2 1 2 2 8 3 7 8 4 12 13 13 13 13 10 5 4 7 5 4 6 8 6 3 5 5 6 7 7 6 6 8 7 6 6 7 9 9 9 9 8 7 7 6 5 7 8 8 7 8 8 8 8 7 7 7 7 8 6 6 7 7 7 7 7 7 6 7 6 7 7 7 7 7 8 7 7 7 7 7 7 7 8 8 7 7 5 6 8 8
6 4 5 1 3 2 3 4 1 2 7 7 3 7 11 4 14 3 2 3 2 4 6 8 9 7 6 7 6 7 5 5 7 7 6 6 5 6 5 6 7 8 8 7 8 6 7 7 7 8 8 10 8 10 10 9 9 9 9 9 8 8 8 7 7 8 6 6 6 6 6 6 7 6 6 6 7 7 6 7 6 6 6 6 7 6 6 5 5 7 7 8 8 7 7 6 7
3 3 1 5 2 4 2 2 5 4 4 3 4 7 9 9 17 6 9 5 3 3 5 4 4 5 6 5 7 5 1 1 2 4 5 5 5 6 5 5 5 6 7 7 7 7 6 6 7 9 10 10 10 9 9 8 8 7 7 8 9 8 8 7 6 6 6 7 6 5 6 6 6 6 7 7 7 7 7 7 7 6 5 6 6 6 6 7 6 5 5 6 6 8 9 8 7
1 3 1 0 1 1 5 6 1 2 6 3 10 4 8 9 12 4 4 3 6 9 7 8 5 3 2 1 2 2 2 3 4 4 5 5 5 5 6 6 6 7 7 7 7 7 8 8 8 7 7 7 8 8 9 10 9 8 7 6 7 8 8 8 7 7 7 7 6 6 6 5 6 6 6 6 7 7 7 8 7 6 6 7 7 6 7 7 7 6 7 6 7 8 9 9 7
1 0 2 0 1 1 3 2 5 5 3 5 4 8 9 12 4 5 7 6 3 2 1 3 3 2 3 1 2 3 2 3 4 5 4 4 4 5 5 5 5 4 5 5 7 9 8 6 7 8 9 8 9 9 8 9 9 9 9 9 9 8 8 7 7 7 7 7 6 6 6 6 5 6 6 7 7 7 8 8 7 6 8 8 8 8 7 7 7 7 6 7 7 8 9 7 8
12 13 12 13 8 4 4 8 1 1 4 3 4 11 10 15 3 4 0 3 5 4 4 2 3 5 5 4 2 4 2 1 4 5 3 0 1 1 0 1 2 5 5 7 6 6 7 9 8 7 7 7 8 8 8 7 7 7 9 9 9 7 8 6 7 7 7 7 7 7 6 6 6 6 7 8 8 7 7 8 8 8 7 6 6 7 7 7 8 8 7 6 8 9 9 8 7
Wind_Direction
289 266 228 225 241 245 306 214 323 220 179 175 115 121 82 82 111 111 102 181 108 43 37 42 26 26 40 31 351 73 29 45 11 121 133 132 146 139 132 122 129 127 121 125 126 124 119 115 119 129 131 125 120 119 120 120 115 121 114 108 103 100 96 90 85 82 82 81 80 82 82 80 79 77 76 81 86 85 86 94 93 87 82 84 88 83 77 75 74 73 72 72 71 70 69 70 70
278 276 265 244 249 17 257 159 255 279 206 85 70 96 127 102 203 121 112 68 64 83 61 46 50 44 344 341 338 158 48 46 67 87 92 115 110 104 123 132 142 131 133 131 135 133 118 119 117 127 128 128 127 125 119 118 118 117 113 109 107 104 101 95 89 87 84 82 84 85 83 82 81 79 77 76 82 86 92 87 85 89 89 78 75 83 83 78 75 74 74 74 71 69 69 71 70
297 309 277 196 256 228 309 251 262 258 138 88 62 76 143 128 108 65 72 82 88 86 64 59 67 84 308 255 64 26 98 97 95 100 107 131 133 143 170 148 137 134 136 143 142 128 122 120 126 130 134 140 130 125 122 122 124 120 111 108 109 108 104 96 92 90 87 88 88 86 85 85 84 85 83 79 82 84 84 91 99 96 85 82 85 80 80 80 80 79 76 74 72 71 71 72 72
275 266 279 291 309 122 264 204 223 284 49 118 85 147 131 115 78 86 76 91 84 98 133 105 132 16 354 12 13 126 92 77 92 118 128 165 149 144 166 182 128 130 130 137 137 121 116 125 130 134 138 133 130 129 131 132 124 118 114 112 110 110 105 100 97 93 92 91 90 89 89 88 87 88 88 84 81 87 89 88 83 88 85 88 83 81 82 83 83 80 76 73 72 74 75 77 71
249 246 198 304 342 245 294 255 271 33 31 360 117 156 124 95 101 89 85 82 73 63 12 103 91 347 59 46 358 31 81 94 122 134 96 75 117 153 168 150 138 129 140 135 124 112 121 124 129 136 141 140 133 133 132 129 125 121 118 116 113 111 107 102 100 96 95 95 95 94 93 92 91 89 89 92 93 90 91 89 87 81 82 85 86 86 86 83 80 78 75 73 73 73 75 77 68
241 272 178 147 231 76 313 315 319 70 28 7 105 98 96 104 105 111 108 76 66 68 16 100 18 146 111 48 6 85 280 151 95 92 123 129 131 138 138 152 147 142 145 139 118 115 123 123 125 139 140 143 137 136 134 133 128 121 120 116 113 110 110 108 102 99 98 98 99 99 97 97 96 93 94 95 95 95 94 92 91 90 88 86 89 94 92 87 82 79 77 75 76 75 76 73 66
301 276 175 224 275 127 252 260 74 92 348 16 88 111 95 97 108 118 112 108 81 91 28 36 346 289 131 120 75 61 26 37 105 37 87 131 120 131 130 173 142 145 146 129 108 115 124 122 133 139 143 144 142 139 140 132 129 126 120 117 117 119 116 112 107 102 100 99 100 100 101 100 98 97 96 97 100 99 95 92 82 81 83 79 84 88 91 86 82 79 77 78 79 78 76 69 60
221 90 185 210 277 186 248 237 59 54 30 33 26 96 103 107 127 122 144 146 154 152 203 64 64 345 73 218 101 51 69 58 101 108 98 78 91 122 181 172 150 145 140 107 102 115 121 123 130 129 145 147 150 147 141 140 136 132 127 124 124 121 118 114 109 105 103 102 103 102 101 101 100 99 97 96 97 98 94 88 87 83 88 95 97 88 82 83 83 83 84 84 80 77 72 65 56
215 116 322 18 289 211 292 82 104 81 127 81 53 49 100 127 141 127 139 82 148 105 170 170 116 271 99 90 70 136 81 85 100 113 111 112 114 159 191 174 153 139 132 107 114 125 118 123 125 124 131 146 151 147 142 143 143 139 135 129 126 123 119 116 111 106 103 103 103 103 102 103 103 102 101 100 99 100 96 93 92 88 87 88 84 84 85 86 86 86 86 85 80 73 66 61 56
282 141 294 245 296 267 243 91 87 88 100 114 130 126 112 141 140 150 125 147 127 142 69 64 85 288 207 119 125 153 134 123 129 118 125 135 147 182 203 170 147 137 132 118 131 127 119 117 116 120 126 138 147 150 143 147 150 146 139 136 129 125 123 122 117 113 109 106 105 105 105 104 105 104 103 102 98 98 105 105 95 98 100 96 91 88 86 87 91 92 91 88 80 72 66 61 56
227 172 241 353 245 257 249 96 104 127 106 93 100 124 131 146 133 146 154 102 133 117 132 119 145 219 274 87 82 353 123 131 141 130 144 147 150 201 182 136 149 137 134 133 133 118 124 117 114 116 126 130 134 151 144 149 151 151 144 141 137 130 130 130 123 117 112 108 107 107 108 108 107 105 104 102 100 97 103 101 93 93 100 101 96 93 93 96 98 96 95 95 82 75 70 64 58
245 209 136 268 281 300 18 92 112 97 124 133 115 133 170 143 150 144 128 121 123 124 139 179 98 2 234 134 112 178 136 147 136 130 138 127 148 207 121 242 129 124 129 133 128 130 132 125 118 115 114 120 128 136 152 151 154 150 145 146 143 138 135 134 127 122 116 111 108 108 110 112 111 110 107 105 104 104 105 105 109 103 100 103 100 102 106 105 103 102 102 95 84 80 74 65 58
243 187 195 252 271 358 9 22 68 129 133 193 144 138 158 134 175 164 126 126 129 147 145 173 84 127 323 68 129 136 152 158 123 129 131 164 151 170 171 171 151 133 127 137 129 136 137 146 132 138 128 123 120 121 126 147 147 138 142 147 150 142 139 136 132 125 119 115 111 110 108 108 110 110 111 108 107 107 106 105 105 107 109 111 111 113 112 110 108 107 107 97 86 81 76 67 55
200 261 191 237 187 339 326 38 186 249 191 118 121 135 166 152 204 176 131 187 134 150 3 91 55 45 147 108 131 160 158 131 124 127 148 170 153 145 98 114 134 123 123 141 132 142 142 153 141 143 136 140 128 121 115 131 132 141 148 153 156 144 140 137 135 126 117 111 105 101 102 106 111 111 112 113 112 109 106 107 111 111 111 110 112 113 114 114 113 110 107 94 88 81 75 68 57
307 334 1 287 324 39 75 303 19 18 78 105 130 145 153 129 187 46 6 181 66 100 159 30 73 87 3 314 161 170 144 121 127 127 127 86 64 100 89 69 70 67 132 143 145 144 158 147 147 145 153 161 145 151 142 135 140 120 137 150 149 147 140 136 126 114 112 111 106 96 88 83 81 87 91 97 99 93 102 103 110 112 111 109 113 116 117 116 113 113 105 93 88 83 77 68 59
331 356 2 334 278 161 321 216 127 328 127 120 179 134 137 67 1 141 66 30 129 18 343 92 344 84 45 76 63 112 119 123 125 123 110 99 88 72 64 121 134 93 82 89 83 178 149 156 157 148 160 168 160 161 154 143 146 138 139 132 127 134 135 132 124 117 113 111 108 105 101 93 88 88 90 92 95 93 95 103 108 111 111 111 110 112 114 112 111 112 100 92 86 81 73 64 56
242 90 307 169 291 176 179 179 118 106 124 126 158 158 153 155 241 54 219 88 143 139 135 126 114 106 83 110 110 104 109 118 127 128 123 127 128 133 160 204 139 126 96 109 123 204 101 126 155 160 166 167 164 153 162 146 149 149 128 134 128 133 137 137 120 116 116 118 117 118 112 110 107 100 89 90 84 94 102 106 111 112 110 108 106 109 110 109 113 106 97 93 89 81 70 61 56
307 201 167 266 241 258 156 155 135 162 130 150 175 182 154 133 169 116 90 87 293 127 181 105 69 61 104 116 119 109 113 132 142 143 149 147 156 147 181 211 164 163 148 157 166 174 133 147 164 173 176 168 166 152 147 134 133 156 140 143 143 130 136 134 129 131 132 134 136 134 128 130 127 108 102 92 97 97 95 101 104 108 108 105 106 107 109 111 109 102 99 95 88 81 70 61 54
171 199 183 238 246 346 7 55 41 31 108 165 171 201 214 160 151 170 157 191 184 187 187 151 137 109 103 122 120 136 145 149 157 163 159 162 169 167 179 190 193 170 168 169 173 174 160 154 175 190 162 172 172 160 139 147 149 160 177 153 143 142 146 151 140 142 145 146 160 153 144 158 124 124 119 106 95 87 93 95 99 103 105 105 107 107 109 108 105 101 95 90 83 71 66 61 51
256 49 221 207 38 81 34 52 73 55 336 137 146 190 267 120 139 143 220 185 172 202 186 176 181 169 160 154 150 146 162 160 173 173 172 170 177 169 186 183 190 198 172 176 174 171 165 185 178 203 169 157 164 172 156 157 161 169 190 157 161 154 161 172 155 160 154 162 173 172 163 147 123 116 106 106 102 96 87 86 92 95 97 97 97 99 102 105 105 104 104 86 60 55 54 55 53
32 110 245 16 314 48 31 52 49 39 6 90 128 79 279 128 119 173 183 278 210 202 206 174 196 183 171 159 158 153 164 166 176 183 182 178 185 181 189 190 187 189 183 164 174 178 176 181 181 188 181 162 165 167 165 163 162 174 175 154 157 163 166 176 168 172 164 173 184 187 145 109 122 122 124 121 116 112 106 109 102 103 104 100 94 96 103 110 112 115 113 77 67 60 55 48 50
106 209 86 7 0 72 13 73 26 11 294 59 105 144 211 78 68 204 229 197 227 161 349 283 165 185 150 157 162 160 166 170 179 189 190 189 187 186 183 187 183 177 186 168 189 176 177 181 182 189 190 170 172 172 170 162 166 179 173 163 158 173 169 179 180 191 173 176 189 167 131 129 130 130 140 137 127 127 128 134 127 125 123 118 117 121 137 141 153 142 96 74 66 65 63 57 55
207 179 95 55 24 89 19 70 11 324 337 124 167 41 45 141 191 194 224 226 136 146 102 71 47 117 146 144 149 169 171 177 184 192 193 192 194 196 183 182 185 179 177 183 181 193 172 180 180 187 197 179 183 166 165 138 163 180 185 168 165 178 168 183 188 193 180 180 180 163 149 148 142 146 155 147 139 141 153 158 139 145 144 135 145 152 164 172 128 88 85 86 81 78 73 71 68
273 57 100 47 27 76 32 89 259 1 342 55 25 289 279 151 239 79 204 219 211 111 111 105 87 102 127 145 165 174 181 181 192 195 196 198 192 198 187 178 184 176 169 183 182 193 173 178 175 185 193 184 183 176 157 153 167 183 183 182 184 175 166 182 188 190 180 178 170 176 162 158 153 156 168 152 150 154 168 162 144 153 153 156 169 171 163 114 92 96 97 95 92 82 85 81 79
199 203 120 127 82 95 90 115 90 54 74 43 7 343 242 232 261 26 249 235 247 147 124 116 112 123 147 148 169 178 183 188 191 193 197 212 206 195 203 193 175 174 182 186 182 181 175 174 182 182 183 189 186 183 171 160 162 177 181 173 190 177 176 179 184 187 185 181 185 178 164 170 158 163 170 156 156 164 168 161 149 165 165 172 171 171 137 114 115 122 121 116 108 100 90 84 83
213 74 109 133 99 114 140 113 129 193 105 4 259 235 241 68 31 254 245 234 216 169 133 136 135 138 176 170 175 177 186 191 188 186 197 196 203 195 197 203 196 179 185 178 173 178 168 178 190 181 185 191 184 180 186 162 165 170 181 175 180 170 187 187 184 194 178 184 189 181 172 171 167 169 165 160 160 169 169 152 155 171 173 172 160 158 130 127 138 141 130 126 117 107 96 91 90
342 131 114 117 130 122 281 152 121 140 57 160 276 280 168 29 94 275 236 246 192 151 154 154 153 171 182 186 181 185 184 191 189 189 179 188 203 203 199 192 207 196 168 179 186 188 171 173 178 182 190 196 181 175 181 192 169 175 177 171 164 177 182 180 188 197 185 184 185 177 177 172 172 165 168 163 161 170 164 151 160 170 176 160 157 148 135 144 150 137 135 128 121 114 107 102 98
107 95 92 95 162 124 159 158 132 147 97 273 288 281 67 169 170 237 192 224 134 155 182 182 175 191 196 196 195 192 192 194 183 174 188 187 198 199 198 191 199 199 180 186 185 177 163 176 178 182 190 197 186 181 178 191 183 171 170 168 167 180 188 184 179 187 190 186 178 174 180 187 174 171 163 167 165 171 166 159 158 166 169 152 147 137 134 144 138 130 121 112 114 114 112 103 94
136 168 140 166 142 175 173 179 167 219 102 263 354 301 264 170 220 239 185 144 154 181 187 203 197 195 210 216 194 190 197 192 179 187 196 197 194 192 201 198 191 195 198 181 178 174 177 179 182 185 189 193 187 193 191 192 189 172 165 170 168 163 179 191 178 184 192 189 181 176 184 189 189 166 167 170 164 173 170 164 161 160 160 143 140 138 135 136 129 115 106 110 108 107 107 103 97
174 257 310 143 182 230 193 134 125 172 108 232 119 335 249 216 223 243 162 149 143 161 204 202 200 199 199 199 200 192 188 190 197 196 195 195 188 191 200 200 190 188 183 175 178 185 182 178 175 180 189 193 187 183 172 176 200 197 168 167 168 157 162 184 191 174 183 187 185 185 186 191 188 172 160 173 165 171 174 173 162 154 144 139 138 134 140 142 129 122 121 106 110 114 112 109 105
187 182 205 231 135 274 148 159 158 196 147 202 342 220 281 355 286 158 135 154 153 199 211 217 218 216 205 193 187 190 200 197 207 203 195 192 188 186 192 195 188 182 173 181 191 189 179 177 171 181 183 183 170 181 182 181 192 208 207 170 169 160 167 177 196 174 177 184 183 189 189 195 187 176 163 171 172 171 173 170 159 150 141 143 144 147 141 132 133 132 127 118 121 113 108 108 106
243 80 276 278 226 113 187 47 154 193 240 231 191 262 261 268 211 109 96 93 181 216 233 232 229 222 201 186 185 187 203 205 211 208 201 198 190 187 184 194 189 187 189 189 189 183 185 177 172 179 177 184 175 177 181 183 184 191 205 207 164 168 166 173 182 193 172 182 190 184 185 190 188 181 165 161 174 174 170 173 163 146 147 146 148 151 144 140 140 134 134 140 133 126 115 108 105
260 180 251 184 215 164 192 244 68 49 112 249 190 239 312 348 150 156 178 160 164 220 255 245 243 237 227 202 187 194 204 211 206 204 199 196 203 192 188 190 194 192 186 182 184 185 186 176 172 177 179 183 174 173 176 181 184 185 193 206 186 167 168 173 178 173 176 171 183 184 180 182 187 181 171 162 171 175 170 169 162 153 151 151 153 148 144 144 144 140 138 142 142 135 125 119 109
216 179 242 257 172 165 205 20 240 66 233 197 225 255 246 267 215 192 226 189 174 191 221 242 237 216 211 207 206 203 203 210 211 197 198 191 197 197 193 193 193 186 184 183 184 186 187 175 176 181 176 183 174 174 178 180 182 193 209 211 182 159 167 173 168 162 169 180 175 187 181 176 184 180 176 174 170 179 169 163 153 153 152 151 149 143 142 138 135 139 132 134 146 133 131 130 123
192 181 216 254 205 283 264 163 175 183 157 284 236 219 252 266 275 268 228 202 194 203 208 217 227 236 242 230 213 210 208 208 220 196 190 190 189 195 192 189 189 183 183 182 180 182 179 176 170 181 174 179 177 167 173 172 178 194 210 220 215 159 167 162 159 171 179 171 193 184 179 180 185 184 178 177 166 156 153 154 151 156 155 154 147 139 134 133 134 140 140 132 113 104 134 138 131
24 56 191 218 188 218 217 69 157 267 198 215 239 250 250 254 257 247 247 222 207 216 222 228 233 236 241 239 235 227 217 220 212 192 187 188 187 186 189 182 187 180 177 181 179 175 181 177 171 177 183 174 170 168 161 169 172 186 195 191 155 188 165 159 164 169 172 191 191 178 185 179 184 185 181 173 167 159 158 158 158 158 159 155 153 147 149 152 152 141 138 134 125 113 113 132 132
352 35 23 353 19 11 92 87 39 327 334 256 241 251 255 261 267 270 264 267 256 234 224 224 224 227 228 233 237 235 230 229 203 195 183 185 185 184 180 172 177 170 173 180 182 182 184 184 169 183 183 172 171 172 172 171 175 180 186 195 193 184 189 158 152 159 169 185 189 187 182 185 184 184 181 167 160 154 158 159 158 164 163 165 165 167 163 156 150 138 133 137 140 134 140 149 146
55 23 22 320 129 297 38 119 175 34 46 289 306 292 270 266 266 269 265 259 254 243 245 245 240 226 221 227 239 237 237 254 213 197 183 173 172 171 167 164 165 170 190 185 190 190 184 182 181 178 177 181 182 182 175 177 185 188 176 186 166 176 185 190 186 182 169 166 176 185 182 177 176 180 176 165 161 159 152 160 167 170 167 172 173 164 155 147 139 137 138 127 153 149 156 166 164
95 344 1 350 283 144 98 75 215 156 109 263 271 297 281 270 271 271 266 257 252 228 223 229 225 231 228 228 238 242 232 233 209 200 176 170 166 163 162 165 178 184 182 188 193 184 184 188 186 177 181 185 186 179 168 182 169 162 157 168 167 177 195 182 193 194 156 152 173 170 180 179 176 175 174 166 162 163 159 164 177 177 175 163 148 147 152 155 157 155 160 153 151 170 153 173 177
88 160 151 223 240 85 286 22 356 230 199 264 344 306 286 276 251 249 244 240 247 241 233 242 217 220 219 226 231 226 219 216 207 194 188 177 170 164 158 170 182 171 176 188 190 193 190 192 185 180 182 185 184 179 165 161 155 148 156 149 166 166 173 131 111 124 162 150 176 172 177 182 179 175 173 171 169 165 163 171 172 176 179 172 163 156 162 164 163 164 163 162 150 146 171 186 203
212 216 208 230 206 92 97 97 262 233 230 303 318 285 279 268 258 261 250 236 246 263 248 243 234 214 220 238 255 222 216 205 210 203 189 176 173 179 180 178 167 181 187 188 191 192 194 192 189 182 178 182 179 163 153 148 143 155 137 63 85 81 81 130 140 184 188 178 161 179 185 166 169 170 175 176 172 173 172 172 173 177 179 176 167 163 167 170 170 173 170 164 169 160 167 174 201
220 207 194 206 287 100 88 45 16 352 328 72 358 356 293 314 320 292 318 29 248 257 233 236 227 223 231 244 244 251 249 225 206 208 193 181 178 172 170 172 181 192 195 198 189 190 182 184 181 177 170 171 169 162 152 149 161 161 158 155 160 167 171 179 194 194 186 185 184 158 145 171 166 169 179 181 178 175 176 175 175 174 178 176 174 173 170 163 168 170 176 173 179 181 163 170 183
304 278 356 349 56 88 80 333 40 328 255 265 81 70 282 311 290 280 294 286 274 274 246 247 233 217 217 229 233 227 227 237 242 233 196 151 173 170 182 185 190 193 202 178 178 187 186 178 179 174 168 164 162 161 161 153 160 172 181 186 183 184 185 204 201 201 185 173 147 165 170 172 175 170 182 182 181 179 176 175 176 177 177 179 177 173 174 176 175 180 180 185 185 176 168 167 178
256 309 311 26 83 87 94 64 158 240 338 290 153 173 239 296 282 281 262 264 261 261 257 259 249 215 219 218 210 211 212 205 191 203 212 177 173 176 185 191 188 191 177 173 183 183 184 179 171 171 165 160 163 159 172 169 166 174 178 189 190 192 195 192 181 184 165 158 163 164 159 173 171 171 173 179 181 177 173 172 175 176 177 180 178 183 182 181 179 183 186 190 185 182 179 173 175
193 251 292 84 80 97 96 133 292 252 43 296 175 179 306 231 269 280 257 278 262 244 247 248 243 234 213 194 151 146 137 129 139 162 179 192 170 176 170 176 182 169 173 177 180 179 177 172 166 168 169 163 171 169 174 177 174 177 177 183 196 205 196 191 172 168 169 168 171 162 165 163 166 158 159 167 177 174 171 172 169 171 178 177 183 188 187 183 182 179 183 186 188 187 191 186 173
263 217 87 107 81 64 77 42 78 317 28 259 174 186 241 272 210 258 264 233 262 253 250 253 263 206 138 125 131 120 98 98 103 131 127 122 136 131 148 152 156 171 167 164 165 165 174 171 171 175 179 170 170 169 171 174 174 171 175 184 194 200 194 193 175 179 179 171 175 170 166 162 162 150 147 159 166 171 170 173 173 173 179 178 182 189 184 188 190 188 186 185 181 181 187 186 189
134 182 96 67 78 87 298 85 86 22 255 257 184 196 175 295 202 202 195 233 204 238 256 56 75 65 67 89 133 161 159 153 159 135 123 110 91 108 113 141 156 147 154 156 165 170 174 176 176 180 183 165 163 172 173 177 178 182 186 187 195 198 196 194 179 181 169 171 178 171 169 166 160 164 158 163 175 175 175 175 176 176 174 170 181 177 175 180 194 193 188 190 185 179 181 189 194
128 136 132 107 7 30 34 339 51 134 261 26 327 183 195 219 293 342 232 25 56 74 14 140 113 118 127 175 184 184 164 165 172 154 144 133 128 139 151 153 155 160 154 162 171 170 175 180 174 179 183 168 163 170 174 180 183 189 187 188 195 197 195 197 191 179 175 177 172 166 157 149 161 162 168 163 181 182 178 179 178 176 178 174 188 187 183 180 179 186 189 190 202 200 186 184 180
14 127 99 110 241 63 307 79 250 198 240 238 338 352 1 245 223 311 342 338 318 203 173 91 110 134 170 219 219 175 173 163 171 173 165 167 176 180 190 184 163 169 176 177 175 173 172 176 176 176 191 176 168 167 179 186 191 194 191 191 193 193 199 197 196 189 175 182 173 164 163 171 160 171 184 182 192 187 184 180 179 184 186 187 186 188 190 181 180 183 187 192 197 199 196 182 171
192 165 158 125 197 194 236 230 209 240 303 287 348 9 259 275 291 233 249 256 273 342 30 106 30 264 177 167 178 187 188 175 186 183 178 183 183 186 189 186 183 181 180 178 175 172 175 180 184 184 193 183 170 171 179 189 198 198 197 197 195 190 201 203 202 201 186 181 177 176 175 177 179 189 183 197 187 186 192 195 190 193 194 186 182 187 189 188 184 187 188 191 198 201 192 184 177
201 195 163 177 159 175 213 173 207 214 207 313 293 70 233 105 242 296 42 136 9 315 304 250 57 351 350 324 254 244 203 200 186 188 190 189 190 178 185 188 188 185 177 178 176 179 179 185 188 191 191 191 178 178 179 189 194 199 201 203 202 198 198 202 207 199 186 179 180 182 183 181 186 192 192 194 179 187 190 189 192 193 192 187 182 183 183 185 189 190 194 193 196 197 189 172 165
220 206 215 245 223 76 208 187 112 308 7 312 238 213 230 197 293 288 255 283 305 314 305 341 310 313 316 278 261 247 239 217 197 198 222 218 193 183 182 188 186 178 177 180 184 182 186 191 191 195 195 192 184 177 184 186 192 192 200 204 210 206 199 196 195 189 184 179 181 183 184 183 188 186 185 171 180 179 185 189 190 197 191 187 184 186 186 185 184 181 178 178 186 178 167 151 155
215 141 217 198 49 82 11 10 51 106 23 255 172 292 274 304 272 243 253 251 244 244 248 279 284 266 200 250 280 275 240 206 187 205 223 231 209 196 186 178 173 175 181 189 190 188 187 184 186 189 193 191 183 182 183 185 187 186 196 199 203 206 198 197 198 196 185 183 180 183 181 185 181 171 167 165 164 173 177 186 188 191 188 183 181 187 186 191 184 173 176 172 169 167 156 154 147
101 191 219 78 48 91 150 217 48 184 218 263 133 250 285 58 290 61 147 259 258 219 233 230 235 258 263 259 269 278 268 204 203 209 221 220 200 191 181 177 178 184 187 188 193 187 186 183 181 185 191 195 190 183 187 190 190 191 190 192 195 199 199 197 194 196 186 176 183 172 166 171 180 172 159 160 158 164 172 178 181 185 182 176 180 175 169 163 163 172 173 170 165 150 142 141 150
119 180 310 134 248 256 251 96 242 247 237 281 252 239 264 229 256 260 318 320 318 273 253 229 210 195 221 252 263 270 296 237 225 210 202 205 192 188 187 192 194 187 185 184 182 179 182 187 187 190 197 197 194 185 188 192 191 193 191 190 191 198 204 202 196 185 183 185 183 174 173 168 155 155 151 149 153 161 165 173 174 183 178 174 167 170 165 159 157 156 154 150 154 147 145 150 156
34 14 26 67 102 186 155 193 200 118 244 222 270 271 258 234 239 299 274 269 251 260 264 246 209 193 208 220 204 205 228 246 258 251 226 221 209 191 185 190 194 189 184 182 178 179 188 188 187 197 199 197 197 195 183 189 189 189 193 188 191 190 195 199 197 189 185 189 183 176 173 167 167 158 160 152 156 165 168 172 177 178 178 167 164 167 165 166 161 166 162 158 165 152 152 153 152
268 69 256 234 143 294 111 305 186 181 203 215 262 278 252 252 206 219 227 235 241 205 107 92 104 73 24 34 171 216 225 247 264 267 264 207 197 187 188 188 191 185 181 179 184 189 187 186 196 196 197 199 202 201 190 192 181 189 187 192 188 185 189 185 191 198 196 189 177 172 176 175 152 171 152 159 165 171 171 174 173 179 180 173 170 170 169 162 161 166 167 163 159 158 153 154 146
185 185 203 192 165 169 189 254 182 185 191 226 223 255 280 265 139 253 157 46 30 63 75 20 349 343 324 299 153 166 188 257 261 270 320 42 115 120 290 229 175 178 192 192 195 183 188 196 197 195 198 204 201 205 201 191 189 187 192 194 188 180 179 180 186 190 191 187 173 172 168 159 175 173 165 168 174 171 172 172 173 177 179 174 169 169 167 166 168 168 168 166 164 159 153 151 151